Zurück zum Katalog

STARLINK-30870

AktivKommunikationVLEO
NORAD 58369·PAYLOAD·🇺🇸 United States

Gestartet Nov 18, 2023 von Cape Canaveral Space Force Station

Loading…

Nächste Überflüge (nächste 24 Stunden)

TLE

AktuellSource: CelesTrak SupGP

Epoche: Sep 14, 2026, 22:33 UTC

1 58369C 23177U   26257.94006944 -.00011182  00000+0 -40496-3 0  2576
2 58369  43.0020   2.0974 0001519 267.1700 232.1249 15.27588726    18

Verfolge STARLINK-30870 in Echtzeit mit AllMySat

Download on the App Store